AirNav   ProFlight Series 2 Aviation Headset
 
 1209 users online  

7PA7 Wayne Memorial Hospital Heliport
Honesdale, Pennsylvania, USA

GOING TO HONESDALE?


FAA INFORMATION EFFECTIVE 18 JUNE 2020

Location

FAA Identifier: 7PA7
Lat/Long: 41-35-23.4100N 075-15-43.0000W
41-35.390167N 075-15.716667W
41.5898361,-75.2619444
(estimated)
Elevation: 982 ft. / 299 m (estimated)
From city: 1 mile N of HONESDALE, PA
Time zone: UTC -4 (UTC -5 during Standard Time)
Zip code: 18431

Heliport Operations

Heliport use: Private use. Permission required prior to landing
Activation date: 10/2016
Control tower: no
ARTCC: NEW YORK CENTER
FSS: WILLIAMSPORT FLIGHT SERVICE STATION
Attendance: 
Wind indicator: yes
Segmented circle: no

Nearby radio navigation aids

VOR radial/distance  VOR name  Freq  Var
LVZr055/27.0WILKES-BARRE VORTAC111.6010W
HNKr186/28.5HANCOCK VOR/DME116.8011W
HUOr301/32.0HUGUENOT VOR/DME116.1011W
DNYr212/37.8DELANCEY VOR/DME112.1011W
STWr345/39.8STILLWATER VOR/DME109.6011W

Heliport Services

Runway Information

Helipad H1

Dimensions: 44 x 44 ft. / 13 x 13 m
Surface: concrete
Latitude: 41-35.390167N
Longitude: 075-15.716667W
Elevation: 982.0 ft.
Traffic pattern: leftleft

Heliport Ownership and Management from official FAA records

Ownership: Privately-owned
Owner: WAYNE MEMORIAL HOSPITAL
601 PARK ST.
HONESDALE, PA 18431
Phone 570 253 8169
Manager: WAYNE MEMORIAL HOSPITAL
601 PARK ST
HONESDALE, PA 18431
Phone 570 253 8169

Additional Remarks

FOR CD CTC WILKES-BARRE APCH AT 570-655-2084.

Instrument Procedures

There are no published instrument procedures at 7PA7.

Some nearby airports with instrument procedures:

N30 - Cherry Ridge Airport (4 nm S)
70N - Spring Hill Airport (16 nm SW)
KMSV - Sullivan County International Airport (22 nm E)
9N3 - Seamans Field Airport (22 nm W)
KAVP - Wilkes-Barre/Scranton International Airport (26 nm SW)
 
Loc | Ops | Rwys | IFR | FBO | Links
Com | Nav | Svcs | Stats | Notes
Aerial photo
No photo
 
Airport distance calculator
Flying to Wayne Memorial Hospital Heliport? Find the distance to fly.

From to 7PA7

Sunrise and sunset
Times for 08-Jul-2020
 Local
(UTC-4)
 Zulu
(UTC)
Morning civil twilight05:0309:03
Sunrise05:3609:36
Sunset20:3600:36
Evening civil twilight21:0901:09

Current date and time
Zulu (UTC)  08-Jul-2020 21:41:46
Local (UTC-4)  08-Jul-2020 17:41:46
 
METAR
KMSV 
22nm E 
082115Z AUTO 15007KT 10SM SCT009 BKN090 BKN110 24/22 A3002 RMK AO2
KAVP 
26nm SW 
082054Z 19005KT 10SM CLR 30/21 A2996 RMK AO2 LTG DSNT NW SLP133 T03000206 56019
KMPO 
28nm S 
082053Z AUTO 19006KT 10SM FEW110 25/18 A3003 RMK AO2 SLP155 60000 T02500178 56015
KFWN 
37nm SE 
082053Z AUTO 00000KT 10SM OVC110 24/21 A2999 RMK AO2 SLP152 60014 T02440206 58007
K12N 
42nm SE 
082054Z AUTO 00000KT 26/23 A3000 RMK AO1 SLP150 60011 T02560228 57006
KMGJ 
45nm E 
SuperAWOS
082054Z AUTO 20005KT 10SM FEW075 FEW110 23/22 A2998 RMK AO2 SLP149 60015 T02280217 56014
TAF
KAVP 
26nm SW 
081729Z 0818/0918 22006KT P6SM SCT030 TEMPO 0822/0824 5SM -TSRA BKN035CB FM090000 VRB03KT P6SM SCT100 FM090900 VRB03KT 6SM BR SCT003 TEMPO 0910/0913 2SM BR FM091500 20005KT P6SM SCT040
NOTAMs
Click for the latest NOTAMs
NOTAMs are issued by the DoD/FAA and will open in a separate window not controlled by AirNav.

 

 
 

Would you like to see your business listed on this page?

 If your business provides an interesting product or service to pilots, flight crews, aircraft, or users of the Wayne Memorial Hospital Heliport, you should consider listing it here.  To start the listing process, click on the button below
 
Add a business
 

Other Pages about Wayne Memorial Hospital Heliport

Update a link
 
Copyright © AirNav, LLC. All rights reserved. Privacy Policy  Contact